Weather in Vostochny

Russia / Amur Oblast     55°10′26″N   124°54′00″E
temp.,
°C
wind,
m/s
gust,
m/s
humid.,
%
clouds,
%
prec.,
mm/h
press.,
hPa
HPBL,
m
14 april, wed
wed1400:00−21n119912 0.0 10159
03:00−22wnw0010033 0.0 10159
06:00−24nw0010047 0.0 10149
09:00−11wnw11785 0.0 1011219
12:00−5wnw12607 0.0 1008950
15:00−3w1358100 0.0 10061301
18:00−4w2486100 0.3 1007508
21:00−11wsw119885 0.8 101010
15 april, thu
thu1500:00−14nw119898 0.0 101110
03:00−16wnw1199100 0.0 10129
06:00−17w1199100 0.0 10129
09:00−7w12815 0.0 1011258
12:00−1wnw136459 0.0 10091158
15:00+1wnw124883 0.1 10081638
18:000w126796 0.1 100948
21:00−9wsw00925 0.1 101410
16 april, fri
fri1600:00−13nne119741 0.0 10169
03:00−15n119847 0.0 101710
06:00−15nne119844 0.0 101911
09:00−5n00775 0.0 1016200
12:00+1ssw01665 0.0 1015606
15:00+2wsw12515 0.0 10131280
18:00+1se11655 0.0 101319
21:00−7sse119257 0.0 101510
17 april, sat
sat1700:00−9se119514 0.0 101514
03:00−11ese119729 0.0 101417
06:00−11e119747 0.0 101417
09:00−1sse14675 0.0 1010312
12:00+5ssw47465 0.0 10071167
15:00+7sw474936 0.0 10051244
18:00+5ssw386116 0.0 1006239
21:00−2sse2288100 0.0 100731
18 april, sun
sun1800:00−4ese1195100 0.0 100816
03:00−5ene119663 0.0 100914
06:00−6ne119655 0.0 101130
09:00−1ne237242 0.0 1011354
12:00+4e33625 0.0 1009698
15:00+6ene225849 0.0 1008946
18:00+4ne35745 0.0 1010447
21:00−1ene2196100 0.0 101020